Year,Month,Day,Hour,Minute,Value (Times are PST for temperature in C)
2006,12,21,00,00,7.40
2006,12,21,00,01,7.40
2006,12,21,00,02,7.40
2006,12,21,00,03,7.40
2006,12,21,00,04,7.40
2006,12,21,00,05,7.40
2006,12,21,00,06,7.30
2006,12,21,00,07,7.30
2006,12,21,00,08,7.30
2006,12,21,00,09,7.30
2006,12,21,00,10,7.30
2006,12,21,00,11,7.30
2006,12,21,00,12,7.30
2006,12,21,00,13,7.30
2006,12,21,00,14,7.30
2006,12,21,00,15,7.20
2006,12,21,00,16,7.20
2006,12,21,00,17,7.20
2006,12,21,00,18,7.10
2006,12,21,00,19,7.10
2006,12,21,00,20,7.10
2006,12,21,00,21,7.10
2006,12,21,00,22,7.00
2006,12,21,00,23,7.00
2006,12,21,00,24,6.90
2006,12,21,00,25,6.90
2006,12,21,00,26,6.90
2006,12,21,00,27,6.90
2006,12,21,00,28,6.80
2006,12,21,00,29,6.80
2006,12,21,00,30,6.80
2006,12,21,00,31,6.80
2006,12,21,00,32,6.80
2006,12,21,00,33,6.70
2006,12,21,00,34,6.70
2006,12,21,00,35,6.70
2006,12,21,00,36,6.70
2006,12,21,00,37,6.70
2006,12,21,00,38,6.70
2006,12,21,00,39,6.70
2006,12,21,00,40,6.60
2006,12,21,00,41,6.60
2006,12,21,00,42,6.70
2006,12,21,00,43,6.70
2006,12,21,00,44,6.70
2006,12,21,00,45,6.70
2006,12,21,00,46,6.70
2006,12,21,00,47,6.80
2006,12,21,00,48,6.80
2006,12,21,00,49,6.80
2006,12,21,00,50,6.90
2006,12,21,00,51,7.00
2006,12,21,00,52,7.10
2006,12,21,00,53,7.20
2006,12,21,00,54,7.20
2006,12,21,00,55,7.30
2006,12,21,00,56,7.50
2006,12,21,00,57,7.50
2006,12,21,00,58,7.60
2006,12,21,00,59,7.60
2006,12,21,01,00,7.60
2006,12,21,01,01,7.70
2006,12,21,01,02,7.80
2006,12,21,01,03,7.80
2006,12,21,01,04,7.90
2006,12,21,01,05,8.00
2006,12,21,01,06,8.10
2006,12,21,01,07,8.10
2006,12,21,01,08,8.10
2006,12,21,01,09,8.20
2006,12,21,01,10,8.20
2006,12,21,01,11,8.10
2006,12,21,01,12,8.10
2006,12,21,01,13,8.10
2006,12,21,01,14,8.10
2006,12,21,01,15,8.20
2006,12,21,01,16,8.20
2006,12,21,01,17,8.20
2006,12,21,01,18,8.20
2006,12,21,10,03,8.10
2006,12,21,10,04,8.10
2006,12,21,10,05,8.10
2006,12,21,10,06,8.10
2006,12,21,10,07,8.20
2006,12,21,10,08,8.20
2006,12,21,10,09,8.20
2006,12,21,10,10,8.20
2006,12,21,10,11,8.20
2006,12,21,10,12,8.20
2006,12,21,10,13,8.20
2006,12,21,10,14,8.20
2006,12,21,10,15,8.20
2006,12,21,10,16,8.20
2006,12,21,10,17,8.20
2006,12,21,10,18,8.20
2006,12,21,10,19,8.20
2006,12,21,10,20,8.20
2006,12,21,10,21,8.20
2006,12,21,10,22,8.20
2006,12,21,10,23,8.20
2006,12,21,10,24,8.10
2006,12,21,10,25,8.10
2006,12,21,10,26,8.10
2006,12,21,10,27,8.10
2006,12,21,10,28,8.10
2006,12,21,10,29,8.10
2006,12,21,10,30,8.10
2006,12,21,10,31,8.20
2006,12,21,10,32,8.20
2006,12,21,10,33,8.20
2006,12,21,10,34,8.20
2006,12,21,10,35,8.20
2006,12,21,10,36,8.20
2006,12,21,10,37,8.20
2006,12,21,10,38,8.20
2006,12,21,10,39,8.20
2006,12,21,10,40,8.20
2006,12,21,10,41,8.20
2006,12,21,10,42,8.30
2006,12,21,10,43,8.30
2006,12,21,10,44,8.30
2006,12,21,10,45,8.30
2006,12,21,10,46,8.40
2006,12,21,10,47,8.40
2006,12,21,10,48,8.40
2006,12,21,10,49,8.40
2006,12,21,10,50,8.30
2006,12,21,10,51,8.30
2006,12,21,10,52,8.20
2006,12,21,10,53,8.20
2006,12,21,10,54,8.10
2006,12,21,10,55,8.00
2006,12,21,10,56,8.00
2006,12,21,10,57,7.90
2006,12,21,10,58,7.90
2006,12,21,10,59,7.90
2006,12,21,11,00,7.90
2006,12,21,11,01,7.90
2006,12,21,11,02,7.80
2006,12,21,11,03,7.80
2006,12,21,11,04,7.80
2006,12,21,11,05,7.80
2006,12,21,11,06,7.80
2006,12,21,11,07,7.80
2006,12,21,11,08,7.80
2006,12,21,11,09,7.80
2006,12,21,11,10,7.80
2006,12,21,11,11,7.80
2006,12,21,11,12,7.80
2006,12,21,11,13,7.80
2006,12,21,11,14,7.80
2006,12,21,11,15,7.80
2006,12,21,11,16,7.80
2006,12,21,11,17,7.80
2006,12,21,11,18,7.90
2006,12,21,11,19,7.90
2006,12,21,11,20,7.90
2006,12,21,11,21,7.90
2006,12,21,11,22,7.90
2006,12,21,11,23,7.80
2006,12,21,11,24,7.80
2006,12,21,11,25,7.80
2006,12,21,11,26,7.80
2006,12,21,11,27,7.80
2006,12,21,11,28,7.80
2006,12,21,11,29,7.80
2006,12,21,11,30,7.80
2006,12,21,11,31,7.80
2006,12,21,11,32,7.80
2006,12,21,11,33,7.80
2006,12,21,11,34,7.80
2006,12,21,11,35,7.80
2006,12,21,11,36,7.80
2006,12,21,11,37,7.80
2006,12,21,11,38,7.80
2006,12,21,11,39,7.80
2006,12,21,11,40,7.80
2006,12,21,11,41,7.70
2006,12,21,11,42,7.60
2006,12,21,11,43,7.60
2006,12,21,11,44,7.50
2006,12,21,11,45,7.50
2006,12,21,11,46,7.40
2006,12,21,11,47,7.40
2006,12,21,11,48,7.40
2006,12,21,11,49,7.40
2006,12,21,11,50,7.30
2006,12,21,11,51,7.30
2006,12,21,11,52,7.30
2006,12,21,11,53,7.30
2006,12,21,11,54,7.30
2006,12,21,11,55,7.30
2006,12,21,11,56,7.20
2006,12,21,11,57,7.20
2006,12,21,11,58,7.10
2006,12,21,11,59,7.10
2006,12,21,12,00,7.00
2006,12,21,12,01,6.90
2006,12,21,12,02,6.90
2006,12,21,12,03,6.90
2006,12,21,12,04,6.80
2006,12,21,12,05,6.80
2006,12,21,12,06,6.80
2006,12,21,12,07,6.80
2006,12,21,12,08,6.70
2006,12,21,12,09,6.70
2006,12,21,12,10,6.60
2006,12,21,12,11,6.60
2006,12,21,12,12,6.60
2006,12,21,12,13,6.60
2006,12,21,12,14,6.60
2006,12,21,12,15,6.60
2006,12,21,12,16,6.60
2006,12,21,12,17,6.60
2006,12,21,12,18,6.50
2006,12,21,12,19,6.40
2006,12,21,12,20,6.40
2006,12,21,12,21,6.40
2006,12,21,12,22,6.40
2006,12,21,12,23,6.40
2006,12,21,12,24,6.40
2006,12,21,12,25,6.40
2006,12,21,12,26,6.40
2006,12,21,12,27,6.40
2006,12,21,12,28,6.40
2006,12,21,12,29,6.40
2006,12,21,12,30,6.40
2006,12,21,12,31,6.30
2006,12,21,12,32,6.30
2006,12,21,12,33,6.30
2006,12,21,12,34,6.20
2006,12,21,12,35,6.20
2006,12,21,12,36,6.20
2006,12,21,12,37,6.20
2006,12,21,12,38,6.10
2006,12,21,12,39,6.10
2006,12,21,12,40,6.10
2006,12,21,12,41,6.10
2006,12,21,12,42,6.00
2006,12,21,12,43,6.00
2006,12,21,12,44,6.00
2006,12,21,12,45,6.00
2006,12,21,12,46,6.00
2006,12,21,12,47,6.00
2006,12,21,12,48,6.10
2006,12,21,12,49,6.10
2006,12,21,12,50,6.10
2006,12,21,12,51,6.10
2006,12,21,12,52,6.10
2006,12,21,12,53,6.10
2006,12,21,12,54,6.10
2006,12,21,12,55,6.00
2006,12,21,12,56,6.00
2006,12,21,12,57,6.00
2006,12,21,12,58,6.00
2006,12,21,12,59,6.00
2006,12,21,13,00,6.00
2006,12,21,13,01,6.00
2006,12,21,13,02,5.90
2006,12,21,13,03,5.90
2006,12,21,13,04,5.90
2006,12,21,13,05,5.90
2006,12,21,13,06,5.90
2006,12,21,13,07,5.90
2006,12,21,13,08,5.90
2006,12,21,13,09,5.80
2006,12,21,13,10,5.80
2006,12,21,13,11,5.80
2006,12,21,13,12,5.80
2006,12,21,13,13,5.80
2006,12,21,13,14,5.80
2006,12,21,13,15,5.80
2006,12,21,13,16,5.70
2006,12,21,13,17,5.80
2006,12,21,13,18,5.80
2006,12,21,13,19,5.80
2006,12,21,13,20,5.80
2006,12,21,13,21,5.80
2006,12,21,13,22,5.80
2006,12,21,13,23,5.80
2006,12,21,13,24,5.80
2006,12,21,13,25,5.80
2006,12,21,13,26,5.80
2006,12,21,13,27,5.80
2006,12,21,13,28,5.80
2006,12,21,13,29,5.70
2006,12,21,13,30,5.70
2006,12,21,13,31,5.70
2006,12,21,13,32,5.70
2006,12,21,13,33,5.70
2006,12,21,13,34,5.70
2006,12,21,13,35,5.60
2006,12,21,13,36,5.60
2006,12,21,13,37,5.50
2006,12,21,13,38,5.50
2006,12,21,13,39,5.50
2006,12,21,13,40,5.50
2006,12,21,13,41,5.50
2006,12,21,13,42,5.50
2006,12,21,13,43,5.50
2006,12,21,13,44,5.40
2006,12,21,13,45,5.40
2006,12,21,13,46,5.40
2006,12,21,13,47,5.40
2006,12,21,13,48,5.40
2006,12,21,13,49,5.40
2006,12,21,13,50,5.40
2006,12,21,13,51,5.40
2006,12,21,13,52,5.40
2006,12,21,13,53,5.40
2006,12,21,13,54,5.30
2006,12,21,13,55,5.30
2006,12,21,13,56,5.30
2006,12,21,13,57,5.30
2006,12,21,13,58,5.30
2006,12,21,13,59,5.30
2006,12,21,14,00,5.30
2006,12,21,14,01,5.30
2006,12,21,14,02,5.30
2006,12,21,14,03,5.30
2006,12,21,14,04,5.30
2006,12,21,14,05,5.30
2006,12,21,14,06,5.30
2006,12,21,14,07,5.30
2006,12,21,14,08,5.30
2006,12,21,14,09,5.30
2006,12,21,14,10,5.30
2006,12,21,14,11,5.30
2006,12,21,14,12,5.30
2006,12,21,14,13,5.30
2006,12,21,14,14,5.30
2006,12,21,14,15,5.30
2006,12,21,14,16,5.30
2006,12,21,14,17,5.40
2006,12,21,14,18,5.40
2006,12,21,14,19,5.40
2006,12,21,14,20,5.40
2006,12,21,14,21,5.40
2006,12,21,14,22,5.40
2006,12,21,14,23,5.50
2006,12,21,14,24,5.40
2006,12,21,14,25,5.40
2006,12,21,14,26,5.40
2006,12,21,14,27,5.40
2006,12,21,14,28,5.40
2006,12,21,14,29,5.40
2006,12,21,14,30,5.40
2006,12,21,14,31,5.50
2006,12,21,14,32,5.50
2006,12,21,14,33,5.50
2006,12,21,14,34,5.50
2006,12,21,14,35,5.50
2006,12,21,14,36,5.50
2006,12,21,14,37,5.50
2006,12,21,14,38,5.50
2006,12,21,14,39,5.50
2006,12,21,14,40,5.50
2006,12,21,14,41,5.50
2006,12,21,14,42,5.50
2006,12,21,14,43,5.50
2006,12,21,14,44,5.50
2006,12,21,14,45,5.50
2006,12,21,14,46,5.50
2006,12,21,14,47,5.50
2006,12,21,14,48,5.50
2006,12,21,14,49,5.50
2006,12,21,14,50,5.50
2006,12,21,14,51,5.50
2006,12,21,14,52,5.50
2006,12,21,14,53,5.50
2006,12,21,14,54,5.50
2006,12,21,14,55,5.40
2006,12,21,14,56,5.40
2006,12,21,14,57,5.40
2006,12,21,14,58,5.40
2006,12,21,14,59,5.40
2006,12,21,15,00,5.40
2006,12,21,15,01,5.40
2006,12,21,15,02,5.40
2006,12,21,15,03,5.40
2006,12,21,15,04,5.40
2006,12,21,15,05,5.40
2006,12,21,15,06,5.40
2006,12,21,15,07,5.40
2006,12,21,15,08,5.40
2006,12,21,15,09,5.40
2006,12,21,15,10,5.40
2006,12,21,15,11,5.50
2006,12,21,15,12,5.50
2006,12,21,15,13,5.50
2006,12,21,15,14,5.50
2006,12,21,15,15,5.50
2006,12,21,15,16,5.50
2006,12,21,15,17,5.50
2006,12,21,15,18,5.50
2006,12,21,15,19,5.50
2006,12,21,15,20,5.50
2006,12,21,15,21,5.40
2006,12,21,15,22,5.40
2006,12,21,15,23,5.40
2006,12,21,15,24,5.40
2006,12,21,15,25,5.40
2006,12,21,15,26,5.30
2006,12,21,15,27,5.30
2006,12,21,15,28,5.30
2006,12,21,15,29,5.30
2006,12,21,15,30,5.30
2006,12,21,15,31,5.30
2006,12,21,15,32,5.30
2006,12,21,15,33,5.30
2006,12,21,15,34,5.30
2006,12,21,15,35,5.30
2006,12,21,15,36,5.30
2006,12,21,15,37,5.30
2006,12,21,15,38,5.30
2006,12,21,15,39,5.30
2006,12,21,15,40,5.30
2006,12,21,15,41,5.30
2006,12,21,15,42,5.30
2006,12,21,15,43,5.20
2006,12,21,15,44,5.20
2006,12,21,15,45,5.20
2006,12,21,15,46,5.20
2006,12,21,15,47,5.20
2006,12,21,15,48,5.20
2006,12,21,15,49,5.20
2006,12,21,15,50,5.20
2006,12,21,15,51,5.10
2006,12,21,15,52,5.10
2006,12,21,15,53,5.10
2006,12,21,15,54,5.10
2006,12,21,15,55,5.10
2006,12,21,15,56,5.10
2006,12,21,15,57,5.10
2006,12,21,15,58,5.10
2006,12,21,15,59,5.10
2006,12,21,16,00,5.10
2006,12,21,16,01,5.10
2006,12,21,16,02,5.10
2006,12,21,16,03,5.10
2006,12,21,16,04,5.10
2006,12,21,16,05,5.10
2006,12,21,16,06,5.10
2006,12,21,16,07,5.10
2006,12,21,16,08,4.90
2006,12,21,16,09,4.90
2006,12,21,16,10,4.90
2006,12,21,16,11,4.90
2006,12,21,16,12,4.90
2006,12,21,16,13,4.90
2006,12,21,16,14,4.90
2006,12,21,16,15,4.90
2006,12,21,16,16,4.90
2006,12,21,16,17,4.90
2006,12,21,16,18,4.80
2006,12,21,16,19,4.80
2006,12,21,16,20,4.80
2006,12,21,16,21,4.80
2006,12,21,16,22,4.80
2006,12,21,16,23,4.80
2006,12,21,16,24,4.80
2006,12,21,16,25,4.80
2006,12,21,16,26,4.80
2006,12,21,16,27,4.70
2006,12,21,16,28,4.70
2006,12,21,16,29,4.70
2006,12,21,16,30,4.70
2006,12,21,16,31,4.60
2006,12,21,16,32,4.60
2006,12,21,16,33,4.60
2006,12,21,16,34,4.60
2006,12,21,16,35,4.50
2006,12,21,16,36,4.50
2006,12,21,16,37,4.40
2006,12,21,16,38,4.40
2006,12,21,16,39,4.40
2006,12,21,16,40,4.40
2006,12,21,16,41,4.30
2006,12,21,16,42,4.30
2006,12,21,16,43,4.30
2006,12,21,16,44,4.30
2006,12,21,16,45,4.30
2006,12,21,16,46,4.30
2006,12,21,16,47,4.40
2006,12,21,16,48,4.40
2006,12,21,16,49,4.40
2006,12,21,16,50,4.40
2006,12,21,16,51,4.40
2006,12,21,16,52,4.40
2006,12,21,16,53,4.40
2006,12,21,16,54,4.40
2006,12,21,16,55,4.50
2006,12,21,16,56,4.50
2006,12,21,16,57,4.60
2006,12,21,16,58,4.70
2006,12,21,16,59,4.70
2006,12,21,17,00,4.80
2006,12,21,17,01,4.80
2006,12,21,17,02,4.80
2006,12,21,17,03,4.80
2006,12,21,17,04,4.80
2006,12,21,17,05,4.80
2006,12,21,17,06,4.80
2006,12,21,17,07,4.80
2006,12,21,17,08,4.80
2006,12,21,17,09,4.80
2006,12,21,17,10,4.70
2006,12,21,17,11,4.80
2006,12,21,17,12,4.80
2006,12,21,17,13,4.80
2006,12,21,17,14,4.80
2006,12,21,17,15,4.80
2006,12,21,17,16,4.80
2006,12,21,17,17,4.80
2006,12,21,17,18,4.80
2006,12,21,17,19,4.80
2006,12,21,17,20,4.80
2006,12,21,17,21,4.70
2006,12,21,17,22,4.70
2006,12,21,17,23,4.70
2006,12,21,17,24,4.70
2006,12,21,17,25,4.70
2006,12,21,17,26,4.70
2006,12,21,17,27,4.70
2006,12,21,17,28,4.60
2006,12,21,17,29,4.70
2006,12,21,17,30,4.70
2006,12,21,17,31,4.70
2006,12,21,17,32,4.70
2006,12,21,17,33,4.60
2006,12,21,17,34,4.60
2006,12,21,17,35,4.60
2006,12,21,17,36,4.60
2006,12,21,17,37,4.60
2006,12,21,17,38,4.60
2006,12,21,17,39,4.60
2006,12,21,17,40,4.60
2006,12,21,17,41,4.60
2006,12,21,17,42,4.50
2006,12,21,17,43,4.50
2006,12,21,17,44,4.50
2006,12,21,17,45,4.50
2006,12,21,17,46,4.50
2006,12,21,17,47,4.50
2006,12,21,17,48,4.40
2006,12,21,17,49,4.40
2006,12,21,17,50,4.40
2006,12,21,17,51,4.40
2006,12,21,17,52,4.40
2006,12,21,17,53,4.40
2006,12,21,17,54,4.40
2006,12,21,17,55,4.40
2006,12,21,17,56,4.40
2006,12,21,17,57,4.40
2006,12,21,17,58,4.30
2006,12,21,17,59,4.30
2006,12,21,18,00,4.30
2006,12,21,18,01,4.30
2006,12,21,18,02,4.30
2006,12,21,18,03,4.20
2006,12,21,18,04,4.20
2006,12,21,18,05,4.20
2006,12,21,18,06,4.20
2006,12,21,18,07,4.20
2006,12,21,18,08,4.20
2006,12,21,18,09,4.20
2006,12,21,18,10,4.20
2006,12,21,18,11,4.20
2006,12,21,18,12,4.20
2006,12,21,18,13,4.20
2006,12,21,18,14,4.20
2006,12,21,18,15,4.20
2006,12,21,18,16,4.20
2006,12,21,18,17,4.20
2006,12,21,18,18,4.20
2006,12,21,18,19,4.20
2006,12,21,18,20,4.20
2006,12,21,18,21,4.20
2006,12,21,18,22,4.20
2006,12,21,18,23,4.20
2006,12,21,18,24,4.20
2006,12,21,18,25,4.20
2006,12,21,18,26,4.20
2006,12,21,18,27,4.30
2006,12,21,18,28,4.30
2006,12,21,18,29,4.30
2006,12,21,18,30,4.40
2006,12,21,18,31,4.50
2006,12,21,18,32,4.50
2006,12,21,18,33,4.60
2006,12,21,18,34,4.60
2006,12,21,18,35,4.70
2006,12,21,18,36,4.80
2006,12,21,18,37,4.80
2006,12,21,18,38,4.90
2006,12,21,18,39,4.90
2006,12,21,18,40,5.00
2006,12,21,18,41,5.10
2006,12,21,18,42,5.10
2006,12,21,18,43,5.10
2006,12,21,18,44,5.10
2006,12,21,18,45,5.10
2006,12,21,18,46,5.10
2006,12,21,18,47,5.10
2006,12,21,18,48,5.10
2006,12,21,18,49,5.10
2006,12,21,18,50,5.10
2006,12,21,18,51,5.10
2006,12,21,18,52,5.10
2006,12,21,18,53,5.10
2006,12,21,18,54,5.10
2006,12,21,18,55,5.10
2006,12,21,18,56,5.10
2006,12,21,18,57,5.10
2006,12,21,18,58,5.10
2006,12,21,18,59,5.10
2006,12,21,19,00,5.00
2006,12,21,19,01,4.90
2006,12,21,19,02,4.90
2006,12,21,19,03,4.90
2006,12,21,19,04,4.90
2006,12,21,19,05,4.90
2006,12,21,19,06,4.90
2006,12,21,19,07,4.90
2006,12,21,19,08,4.90
2006,12,21,19,09,4.90
2006,12,21,19,10,4.90
2006,12,21,19,11,4.90
2006,12,21,19,12,4.90
2006,12,21,19,13,4.90
2006,12,21,19,14,4.90
2006,12,21,19,15,4.90
2006,12,21,19,16,4.90
2006,12,21,19,17,4.90
2006,12,21,19,18,4.90
2006,12,21,19,19,4.90
2006,12,21,19,20,4.90
2006,12,21,19,21,4.90
2006,12,21,19,22,4.90
2006,12,21,19,23,4.90
2006,12,21,19,24,4.90
2006,12,21,19,25,4.90
2006,12,21,19,26,4.90
2006,12,21,19,27,4.90
2006,12,21,19,28,4.90
2006,12,21,19,29,4.90
2006,12,21,19,30,4.90
2006,12,21,19,31,4.90
2006,12,21,19,32,4.90
2006,12,21,19,33,4.90
2006,12,21,19,34,4.90
2006,12,21,19,35,4.90
2006,12,21,19,36,4.90
2006,12,21,19,37,4.90
2006,12,21,19,38,4.90
2006,12,21,19,39,4.90
2006,12,21,19,40,4.90
2006,12,21,19,41,4.90
2006,12,21,19,42,4.90
2006,12,21,19,43,4.90
2006,12,21,19,44,5.00
2006,12,21,19,45,5.10
2006,12,21,19,46,5.00
2006,12,21,19,47,4.90
2006,12,21,19,48,4.90
2006,12,21,19,49,4.90
2006,12,21,19,50,4.90
2006,12,21,19,51,4.90
2006,12,21,19,52,4.90
2006,12,21,19,53,5.00
2006,12,21,19,54,5.10
2006,12,21,19,55,5.10
2006,12,21,19,56,5.10
2006,12,21,19,57,5.10
2006,12,21,19,58,5.10
2006,12,21,19,59,5.10
2006,12,21,20,00,5.10
2006,12,21,20,01,5.10
2006,12,21,20,02,5.10
2006,12,21,20,03,5.20
2006,12,21,20,04,5.20
2006,12,21,20,05,5.20
2006,12,21,20,06,5.20
2006,12,21,20,07,5.20
2006,12,21,20,08,5.30
2006,12,21,20,09,5.30
2006,12,21,20,10,5.30
2006,12,21,20,11,5.30
2006,12,21,20,12,5.30
2006,12,21,20,13,5.30
2006,12,21,20,14,5.30
2006,12,21,20,15,5.30
2006,12,21,20,16,5.30
2006,12,21,20,17,5.30
2006,12,21,20,18,5.30
2006,12,21,20,19,5.30
2006,12,21,20,20,5.30
2006,12,21,20,21,5.30
2006,12,21,20,22,5.40
2006,12,21,20,23,5.40
2006,12,21,20,24,5.40
2006,12,21,20,25,5.40
2006,12,21,20,26,5.40
2006,12,21,20,27,5.30
2006,12,21,20,28,5.30
2006,12,21,20,29,5.30
2006,12,21,20,30,5.40
2006,12,21,20,31,5.40
2006,12,21,20,32,5.40
2006,12,21,20,33,5.40
2006,12,21,20,34,5.40
2006,12,21,20,35,5.50
2006,12,21,20,36,5.50
2006,12,21,20,37,5.50
2006,12,21,20,38,5.50
2006,12,21,20,39,5.50
2006,12,21,20,40,5.50
2006,12,21,20,41,5.60
2006,12,21,20,42,5.60
2006,12,21,20,43,5.60
2006,12,21,20,44,5.60
2006,12,21,20,45,5.60
2006,12,21,20,46,5.70
2006,12,21,20,47,5.70
2006,12,21,20,48,5.60
2006,12,21,20,49,5.70
2006,12,21,20,50,5.70
2006,12,21,20,51,5.70
2006,12,21,20,52,5.70
2006,12,21,20,53,5.70
2006,12,21,20,54,5.70
2006,12,21,20,55,5.70
2006,12,21,20,56,5.70
2006,12,21,20,57,5.70
2006,12,21,20,58,5.70
2006,12,21,20,59,5.70
2006,12,21,21,00,5.70
2006,12,21,21,01,5.70
2006,12,21,21,02,5.70
2006,12,21,21,03,5.70
2006,12,21,21,04,5.70
2006,12,21,21,05,5.70
2006,12,21,21,06,5.70
2006,12,21,21,07,5.70
2006,12,21,21,08,5.70
2006,12,21,21,09,5.70
2006,12,21,21,10,5.70
2006,12,21,21,11,5.80
2006,12,21,21,12,5.80
2006,12,21,21,13,5.80
2006,12,21,21,14,5.70
2006,12,21,21,15,5.70
2006,12,21,21,16,5.70
2006,12,21,21,17,5.70
2006,12,21,21,18,5.70
2006,12,21,21,19,5.70
2006,12,21,21,20,5.70
2006,12,21,21,21,5.70
2006,12,21,21,22,5.70
2006,12,21,21,23,5.70
2006,12,21,21,24,5.70
2006,12,21,21,25,5.70
2006,12,21,21,26,5.70
2006,12,21,21,27,5.70
2006,12,21,21,28,5.70
2006,12,21,21,29,5.70
2006,12,21,21,30,5.70
2006,12,21,21,31,5.70
2006,12,21,21,32,5.60
2006,12,21,21,33,5.60
2006,12,21,21,34,5.60
2006,12,21,21,35,5.60
2006,12,21,21,36,5.60
2006,12,21,21,37,5.60
2006,12,21,21,38,5.60
2006,12,21,21,39,5.60
2006,12,21,21,40,5.60
2006,12,21,21,41,5.60
2006,12,21,21,42,5.60
2006,12,21,21,43,5.70
2006,12,21,21,44,5.70
2006,12,21,21,45,5.70
2006,12,21,21,46,5.70
2006,12,21,21,47,5.70
2006,12,21,21,48,5.70
2006,12,21,21,49,5.70
2006,12,21,21,50,5.70
2006,12,21,21,51,5.70
2006,12,21,21,52,5.70
2006,12,21,21,53,5.70
2006,12,21,21,54,5.70
2006,12,21,21,55,5.70
2006,12,21,21,56,5.70
2006,12,21,21,57,5.70
2006,12,21,21,58,5.60
2006,12,21,21,59,5.60
2006,12,21,22,00,5.60
2006,12,21,22,01,5.60
2006,12,21,22,02,5.50
2006,12,21,22,03,5.50
2006,12,21,22,04,5.50
2006,12,21,22,05,5.50
2006,12,21,22,06,5.40
2006,12,21,22,07,5.40
2006,12,21,22,08,5.30
2006,12,21,22,09,5.30
2006,12,21,22,10,5.30
2006,12,21,22,11,5.20
2006,12,21,22,12,5.20
2006,12,21,22,13,5.10
2006,12,21,22,14,5.10
2006,12,21,22,15,5.10
2006,12,21,22,16,5.00
2006,12,21,22,17,4.90
2006,12,21,22,18,4.90
2006,12,21,22,19,4.90
2006,12,21,22,20,4.90
2006,12,21,22,21,4.90
2006,12,21,22,22,4.80
2006,12,21,22,23,4.80
2006,12,21,22,24,4.80
2006,12,21,22,25,4.70
2006,12,21,22,26,4.70
2006,12,21,22,27,4.70
2006,12,21,22,28,4.80
2006,12,21,22,29,4.80
2006,12,21,22,30,4.80
2006,12,21,22,31,4.80
2006,12,21,22,32,4.80
2006,12,21,22,33,4.80
2006,12,21,22,34,4.70
2006,12,21,22,35,4.70
2006,12,21,22,36,4.70
2006,12,21,22,37,4.60
2006,12,21,22,38,4.60
2006,12,21,22,39,4.70
2006,12,21,22,40,4.60
2006,12,21,22,41,4.60
2006,12,21,22,42,4.70
2006,12,21,22,43,4.80
2006,12,21,22,44,4.80
2006,12,21,22,45,4.90
2006,12,21,22,46,4.90
2006,12,21,22,47,4.90
2006,12,21,22,48,5.00
2006,12,21,22,49,5.10
2006,12,21,22,50,5.10
2006,12,21,22,51,5.10
2006,12,21,22,52,5.10
2006,12,21,22,53,5.10
2006,12,21,22,54,5.10
2006,12,21,22,55,5.10
2006,12,21,22,56,5.10
2006,12,21,22,57,5.20
2006,12,21,22,58,5.30
2006,12,21,22,59,5.30
2006,12,21,23,00,5.30
2006,12,21,23,01,5.30
2006,12,21,23,02,5.30
2006,12,21,23,03,5.20
2006,12,21,23,04,5.20
2006,12,21,23,05,5.10
2006,12,21,23,06,5.10
2006,12,21,23,07,5.10
2006,12,21,23,08,5.10
2006,12,21,23,09,4.90
2006,12,21,23,10,4.90
2006,12,21,23,11,4.90
2006,12,21,23,12,4.80
2006,12,21,23,13,4.80
2006,12,21,23,14,4.80
2006,12,21,23,15,4.70
2006,12,21,23,16,4.70
2006,12,21,23,17,4.70
2006,12,21,23,18,4.70
2006,12,21,23,19,4.60
2006,12,21,23,20,4.60
2006,12,21,23,21,4.60
2006,12,21,23,22,4.60
2006,12,21,23,23,4.60
2006,12,21,23,24,4.60
2006,12,21,23,25,4.50
2006,12,21,23,26,4.50
2006,12,21,23,27,4.50
2006,12,21,23,28,4.50
2006,12,21,23,29,4.40
2006,12,21,23,30,4.40
2006,12,21,23,31,4.30
2006,12,21,23,32,4.30
2006,12,21,23,33,4.30
2006,12,21,23,34,4.30
2006,12,21,23,35,4.30
2006,12,21,23,36,4.40
2006,12,21,23,37,4.40
2006,12,21,23,38,4.30
2006,12,21,23,39,4.40
2006,12,21,23,40,4.40
2006,12,21,23,41,4.40
2006,12,21,23,42,4.40
2006,12,21,23,43,4.40
2006,12,21,23,44,4.40
2006,12,21,23,45,4.40
2006,12,21,23,46,4.40
2006,12,21,23,47,4.40
2006,12,21,23,48,4.40
2006,12,21,23,49,4.40
2006,12,21,23,50,4.40
2006,12,21,23,51,4.40
2006,12,21,23,52,4.40
2006,12,21,23,53,4.40
2006,12,21,23,54,4.50
2006,12,21,23,55,4.50
2006,12,21,23,56,4.50
2006,12,21,23,57,4.50
2006,12,21,23,58,4.50
2006,12,21,23,59,4.40
